Time,TemperatureF,DewpointF,PressureIn,WindDirection,WindDirectionDegrees,WindSpeedMPH,WindSpeedGustMPH,Humidity,HourlyPrecipIn,Conditions,Clouds,dailyrainin,SoftwareType,DateUTC
2013-04-28 00:00:00,57.0,40.5,29.83,SSE,158,5.6,9.2,54,0.00,CLR,CLR,0.00,WeatherDisplay:10.37,2013-04-28 05:00:00,
2013-04-28 00:05:00,56.8,40.8,29.83,SSE,158,6.3,9.2,55,0.00,CLR,CLR,0.00,WeatherDisplay:10.37,2013-04-28 05:05:00,
2013-04-28 00:11:00,56.8,41.8,29.82,South,180,6.9,10.4,57,0.00,CLR,CLR,0.00,WeatherDisplay:10.37,2013-04-28 05:11:00,
2013-04-28 00:16:00,56.8,42.2,29.83,SSE,158,3.9,9.2,58,0.00,CLR,CLR,0.00,WeatherDisplay:10.37,2013-04-28 05:16:00,
2013-04-28 00:21:00,56.8,42.7,29.82,South,180,4.6,12.7,59,0.00,CLR,CLR,0.00,WeatherDisplay:10.37,2013-04-28 05:21:00,
2013-04-28 00:26:00,56.8,43.1,29.82,SSE,158,6.1,8.0,60,0.00,CLR,CLR,0.00,WeatherDisplay:10.37,2013-04-28 05:26:00,
2013-04-28 00:31:00,56.8,43.1,29.82,SE,135,8.8,12.7,60,0.00,CLR,CLR,0.00,WeatherDisplay:10.37,2013-04-28 05:31:00,
2013-04-28 00:37:00,56.8,43.5,29.82,South,180,5.8,11.5,61,0.00,CLR,CLR,0.00,WeatherDisplay:10.37,2013-04-28 05:37:00,
2013-04-28 00:42:00,56.8,43.5,29.82,SSE,158,11.4,16.1,61,0.00,CLR,CLR,0.00,WeatherDisplay:10.37,2013-04-28 05:42:00,
2013-04-28 00:47:00,56.8,44.0,29.82,South,180,6.9,10.4,62,0.00,CLR,CLR,0.00,WeatherDisplay:10.37,2013-04-28 05:47:00,
2013-04-28 00:52:00,56.8,44.0,29.82,South,180,8.3,11.5,62,0.00,CLR,CLR,0.00,WeatherDisplay:10.37,2013-04-28 05:52:00,
2013-04-28 00:57:00,56.7,43.8,29.82,SSE,158,7.9,11.5,62,0.00,CLR,CLR,0.00,WeatherDisplay:10.37,2013-04-28 05:57:00,
2013-04-28 01:03:00,56.5,43.6,29.82,SSW,202,8.0,9.2,62,0.00,CLR,CLR,0.00,WeatherDisplay:10.37,2013-04-28 06:03:00,
2013-04-28 01:08:00,56.5,43.6,29.82,SSE,158,9.7,11.5,62,0.00,CLR,CLR,0.00,WeatherDisplay:10.37,2013-04-28 06:08:00,
2013-04-28 01:13:00,56.3,43.9,29.82,South,180,9.0,11.5,63,0.00,CLR,CLR,0.00,WeatherDisplay:10.37,2013-04-28 06:13:00,
2013-04-28 01:18:00,56.1,43.7,29.82,SE,135,7.6,10.4,63,0.00,CLR,CLR,0.00,WeatherDisplay:10.37,2013-04-28 06:18:00,
2013-04-28 01:23:00,56.1,43.7,29.83,South,180,6.8,11.5,63,0.00,CLR,CLR,0.00,WeatherDisplay:10.37,2013-04-28 06:23:00,
2013-04-28 01:28:00,55.9,43.5,29.83,SE,135,8.2,13.8,63,0.00,CLR,CLR,0.00,WeatherDisplay:10.37,2013-04-28 06:28:00,
2013-04-28 01:33:00,55.9,43.5,29.82,SSE,158,4.6,6.9,63,0.00,CLR,CLR,0.00,WeatherDisplay:10.37,2013-04-28 06:33:00,
2013-04-28 01:39:00,55.8,43.3,29.83,South,180,5.2,10.4,63,0.00,CLR,CLR,0.00,WeatherDisplay:10.37,2013-04-28 06:39:00,
2013-04-28 01:44:00,55.6,43.6,29.82,SSE,158,8.5,10.4,64,0.00,CLR,CLR,0.00,WeatherDisplay:10.37,2013-04-28 06:44:00,
2013-04-28 01:49:00,55.4,43.4,29.82,SSW,202,8.2,17.0,64,0.00,CLR,CLR,0.00,WeatherDisplay:10.37,2013-04-28 06:49:00,
2013-04-28 01:54:00,55.4,43.8,29.82,South,180,9.5,13.8,65,0.00,CLR,CLR,0.00,WeatherDisplay:10.37,2013-04-28 06:54:00,
2013-04-28 01:59:00,55.4,43.8,29.82,SSE,158,9.8,12.7,65,0.00,CLR,CLR,0.00,WeatherDisplay:10.37,2013-04-28 06:59:00,
2013-04-28 02:05:00,55.4,43.8,29.82,SSE,158,7.2,13.8,65,0.00,CLR,CLR,0.00,WeatherDisplay:10.37,2013-04-28 07:05:00,
2013-04-28 02:10:00,55.2,43.7,29.81,South,180,7.2,9.2,65,0.00,CLR,CLR,0.00,WeatherDisplay:10.37,2013-04-28 07:10:00,
2013-04-28 02:15:00,55.0,43.9,29.81,South,180,8.5,10.4,66,0.00,CLR,CLR,0.00,WeatherDisplay:10.37,2013-04-28 07:15:00,
2013-04-28 02:20:00,54.9,43.7,29.81,South,180,8.1,15.0,66,0.00,CLR,CLR,0.00,WeatherDisplay:10.37,2013-04-28 07:20:00,
2013-04-28 02:25:00,54.7,43.9,29.81,South,180,6.7,9.2,67,0.00,CLR,CLR,0.00,WeatherDisplay:10.37,2013-04-28 07:25:00,
2013-04-28 02:31:00,54.7,43.9,29.81,SSW,202,7.5,10.4,67,0.00,CLR,CLR,0.00,WeatherDisplay:10.37,2013-04-28 07:31:00,
2013-04-28 02:36:00,54.3,43.6,29.81,SE,135,7.3,7.3,67,0.00,CLR,CLR,0.00,WeatherDisplay:10.37,2013-04-28 07:36:00,
2013-04-28 02:41:00,54.3,44.0,29.81,South,180,7.9,12.7,68,0.00,CLR,CLR,0.00,WeatherDisplay:10.37,2013-04-28 07:41:00,
2013-04-28 02:46:00,54.3,44.0,29.81,South,180,9.7,11.5,68,0.00,CLR,CLR,0.00,WeatherDisplay:10.37,2013-04-28 07:46:00,
2013-04-28 02:52:00,54.3,44.0,29.81,South,180,8.8,11.5,68,0.00,CLR,CLR,0.00,WeatherDisplay:10.37,2013-04-28 07:52:00,
2013-04-28 02:57:00,54.1,43.8,29.80,SSE,158,5.4,13.8,68,0.00,CLR,CLR,0.00,WeatherDisplay:10.37,2013-04-28 07:57:00,
2013-04-28 03:02:00,54.1,43.8,29.81,SSW,202,6.9,6.9,68,0.00,CLR,CLR,0.00,WeatherDisplay:10.37,2013-04-28 08:02:00,
2013-04-28 03:07:00,54.0,44.0,29.81,SSE,158,8.4,13.8,69,0.00,CLR,CLR,0.00,WeatherDisplay:10.37,2013-04-28 08:07:00,
2013-04-28 03:13:00,53.8,44.2,29.81,South,180,9.8,13.8,70,0.00,CLR,CLR,0.00,WeatherDisplay:10.37,2013-04-28 08:13:00,
2013-04-28 03:18:00,53.8,44.2,29.81,SSE,158,9.7,10.4,70,0.00,CLR,CLR,0.00,WeatherDisplay:10.37,2013-04-28 08:18:00,
2013-04-28 03:23:00,53.8,44.2,29.81,SSE,158,7.4,8.3,70,0.00,CLR,CLR,0.00,WeatherDisplay:10.37,2013-04-28 08:23:00,
2013-04-28 03:28:00,53.8,44.6,29.80,SSW,202,7.4,13.8,71,0.00,CLR,CLR,0.00,WeatherDisplay:10.37,2013-04-28 08:28:00,
2013-04-28 03:34:00,53.6,44.4,29.80,SE,135,7.9,11.5,71,0.00,CLR,CLR,0.00,WeatherDisplay:10.37,2013-04-28 08:34:00,
2013-04-28 03:39:00,53.4,44.2,29.80,SSE,158,5.5,13.8,71,0.00,CLR,CLR,0.00,WeatherDisplay:10.37,2013-04-28 08:39:00,
2013-04-28 03:44:00,53.4,44.2,29.80,SSE,158,8.4,11.5,71,0.00,CLR,CLR,0.00,WeatherDisplay:10.37,2013-04-28 08:44:00,
2013-04-28 03:49:00,53.2,44.1,29.79,SSE,158,8.4,12.7,71,0.00,CLR,CLR,0.00,WeatherDisplay:10.37,2013-04-28 08:49:00,
2013-04-28 03:54:00,53.2,44.1,29.79,SE,135,5.4,8.1,71,0.00,CLR,CLR,0.00,WeatherDisplay:10.37,2013-04-28 08:54:00,
2013-04-28 04:00:00,52.9,44.1,29.79,South,180,7.3,10.4,72,0.00,CLR,CLR,0.00,WeatherDisplay:10.37,2013-04-28 09:00:00,
2013-04-28 04:05:00,52.9,44.1,29.79,South,180,10.2,13.8,72,0.00,CLR,CLR,0.00,WeatherDisplay:10.37,2013-04-28 09:05:00,
2013-04-28 04:10:00,52.7,43.9,29.79,SSE,158,8.8,11.6,72,0.00,CLR,CLR,0.00,WeatherDisplay:10.37,2013-04-28 09:10:00,
2013-04-28 04:15:00,52.7,43.9,29.79,South,180,9.0,10.4,72,0.00,CLR,CLR,0.00,WeatherDisplay:10.37,2013-04-28 09:15:00,
2013-04-28 04:21:00,52.7,43.9,29.79,SE,135,9.9,11.5,72,0.00,CLR,CLR,0.00,WeatherDisplay:10.37,2013-04-28 09:21:00,
2013-04-28 04:26:00,52.5,44.1,29.79,SSE,158,9.2,13.8,73,0.00,CLR,CLR,0.00,WeatherDisplay:10.37,2013-04-28 09:26:00,
2013-04-28 04:31:00,52.3,43.9,29.79,SSE,158,8.9,11.5,73,0.00,CLR,CLR,0.00,WeatherDisplay:10.37,2013-04-28 09:31:00,
2013-04-28 04:36:00,52.3,43.9,29.80,South,180,6.2,10.4,73,0.00,CLR,CLR,0.00,WeatherDisplay:10.37,2013-04-28 09:36:00,
2013-04-28 04:41:00,52.3,43.9,29.79,SSE,158,4.5,8.1,73,0.00,CLR,CLR,0.00,WeatherDisplay:10.37,2013-04-28 09:41:00,
2013-04-28 04:47:00,52.2,43.8,29.79,SE,135,8.1,11.5,73,0.00,CLR,CLR,0.00,WeatherDisplay:10.37,2013-04-28 09:47:00,
2013-04-28 04:52:00,51.8,43.8,29.79,SSW,202,6.9,10.4,74,0.00,CLR,CLR,0.00,WeatherDisplay:10.37,2013-04-28 09:52:00,
2013-04-28 04:57:00,51.6,43.6,29.79,SSE,158,6.6,10.4,74,0.00,CLR,CLR,0.00,WeatherDisplay:10.37,2013-04-28 09:57:00,
2013-04-28 05:02:00,51.4,43.4,29.79,SSE,158,7.7,11.5,74,0.00,CLR,CLR,0.00,WeatherDisplay:10.37,2013-04-28 10:02:00,
2013-04-28 05:08:00,51.3,43.6,29.79,SSE,158,9.9,11.5,75,0.00,CLR,CLR,0.00,WeatherDisplay:10.37,2013-04-28 10:08:00,
2013-04-28 05:13:00,51.1,43.4,29.79,SSE,158,4.8,8.1,75,0.00,CLR,CLR,0.00,WeatherDisplay:10.37,2013-04-28 10:13:00,
2013-04-28 05:18:00,50.9,43.3,29.79,South,180,4.8,6.9,75,0.00,CLR,CLR,0.00,WeatherDisplay:10.37,2013-04-28 10:18:00,
2013-04-28 05:23:00,50.7,43.1,29.79,South,180,5.7,8.1,75,0.00,CLR,CLR,0.00,WeatherDisplay:10.37,2013-04-28 10:23:00,
2013-04-28 05:28:00,50.5,42.9,29.78,South,180,6.0,12.7,75,0.00,CLR,CLR,0.00,WeatherDisplay:10.37,2013-04-28 10:28:00,
2013-04-28 05:33:00,50.5,43.3,29.78,SSE,158,3.9,5.8,76,0.00,CLR,CLR,0.00,WeatherDisplay:10.37,2013-04-28 10:33:00,
2013-04-28 05:39:00,50.4,43.1,29.78,South,180,6.3,8.1,76,0.00,CLR,CLR,0.00,WeatherDisplay:10.37,2013-04-28 10:39:00,
2013-04-28 05:44:00,50.2,42.9,29.78,SSE,158,8.0,11.8,76,0.00,CLR,CLR,0.00,WeatherDisplay:10.37,2013-04-28 10:44:00,
2013-04-28 05:49:00,50.2,43.2,29.78,SSE,158,8.7,12.7,77,0.00,CLR,CLR,0.00,WeatherDisplay:10.37,2013-04-28 10:49:00,
2013-04-28 05:54:00,50.2,43.2,29.77,South,180,6.9,10.4,77,0.00,CLR,CLR,0.00,WeatherDisplay:10.37,2013-04-28 10:54:00,
2013-04-28 05:59:00,50.2,43.2,29.77,South,180,4.7,6.9,77,0.00,CLR,CLR,0.00,WeatherDisplay:10.37,2013-04-28 10:59:00,
2013-04-28 06:04:00,50.2,43.2,29.77,SSE,158,6.9,9.2,77,0.00,CLR,CLR,0.00,WeatherDisplay:10.37,2013-04-28 11:04:00,
2013-04-28 06:09:00,49.8,42.9,29.77,SSE,158,6.5,10.4,77,0.00,CLR,CLR,0.00,WeatherDisplay:10.37,2013-04-28 11:09:00,
2013-04-28 06:14:00,49.6,43.1,29.77,South,180,8.2,9.4,78,0.00,CLR,CLR,0.00,WeatherDisplay:10.37,2013-04-28 11:14:00,
2013-04-28 06:20:00,49.6,43.1,29.77,South,180,4.3,5.8,78,0.00,CLR,CLR,0.00,WeatherDisplay:10.37,2013-04-28 11:20:00,
2013-04-28 06:25:00,49.6,43.1,29.76,SSE,158,8.6,11.5,78,0.00,CLR,CLR,0.00,WeatherDisplay:10.37,2013-04-28 11:25:00,
2013-04-28 06:30:00,49.6,43.1,29.77,SE,135,5.4,5.8,78,0.00,CLR,CLR,0.00,WeatherDisplay:10.37,2013-04-28 11:30:00,
2013-04-28 06:35:00,49.8,43.2,29.76,SSE,158,6.7,6.7,78,0.00,CLR,CLR,0.00,WeatherDisplay:10.37,2013-04-28 11:35:00,
2013-04-28 06:40:00,50.0,43.4,29.75,SSW,202,4.3,9.8,78,0.00,CLR,CLR,0.00,WeatherDisplay:10.37,2013-04-28 11:40:00,
2013-04-28 06:45:00,50.2,43.6,29.75,South,180,6.0,8.0,78,0.00,CLR,CLR,0.00,WeatherDisplay:10.37,2013-04-28 11:45:00,
2013-04-28 06:50:00,50.5,43.9,29.76,South,180,8.4,10.4,78,0.00,CLR,CLR,0.00,WeatherDisplay:10.37,2013-04-28 11:50:00,
2013-04-28 06:55:00,50.7,44.1,29.76,SSE,158,4.0,6.9,78,0.00,CLR,CLR,0.00,WeatherDisplay:10.37,2013-04-28 11:55:00,
2013-04-28 07:00:00,50.9,44.3,29.76,SE,135,4.1,6.9,78,0.00,CLR,CLR,0.00,WeatherDisplay:10.37,2013-04-28 12:00:00,
2013-04-28 07:06:00,51.3,44.3,29.76,SSE,158,3.9,5.8,77,0.00,CLR,CLR,0.00,WeatherDisplay:10.37,2013-04-28 12:06:00,
2013-04-28 07:11:00,51.6,44.6,29.75,SSE,158,5.7,9.2,77,0.00,CLR,CLR,0.00,WeatherDisplay:10.37,2013-04-28 12:11:00,
2013-04-28 07:16:00,52.3,45.0,29.76,South,180,6.0,8.1,76,0.00,CLR,CLR,0.00,WeatherDisplay:10.37,2013-04-28 12:16:00,
2013-04-28 07:21:00,52.9,45.5,29.75,SSW,202,4.6,10.4,76,0.00,CLR,CLR,0.00,WeatherDisplay:10.37,2013-04-28 12:21:00,
2013-04-28 07:26:00,53.4,45.7,29.75,SSE,158,11.1,15.0,75,0.00,CLR,CLR,0.00,WeatherDisplay:10.37,2013-04-28 12:26:00,
2013-04-28 07:31:00,53.8,45.7,29.75,SSE,158,7.3,11.5,74,0.00,CLR,CLR,0.00,WeatherDisplay:10.37,2013-04-28 12:31:00,
2013-04-28 07:37:00,54.9,46.4,29.75,SSE,158,7.4,12.3,73,0.00,CLR,CLR,0.00,WeatherDisplay:10.37,2013-04-28 12:37:00,
2013-04-28 07:42:00,55.4,46.2,29.76,SSW,202,7.8,11.5,71,0.00,CLR,CLR,0.00,WeatherDisplay:10.37,2013-04-28 12:42:00,
2013-04-28 07:47:00,55.9,46.3,29.75,SSE,158,8.3,12.7,70,0.00,CLR,CLR,0.00,WeatherDisplay:10.37,2013-04-28 12:47:00,
2013-04-28 07:52:00,56.3,46.3,29.75,South,180,9.9,17.0,69,0.00,CLR,CLR,0.00,WeatherDisplay:10.37,2013-04-28 12:52:00,
2013-04-28 07:57:00,56.5,46.0,29.75,ESE,112,7.1,12.7,68,0.00,CLR,CLR,0.00,WeatherDisplay:10.37,2013-04-28 12:57:00,
2013-04-28 08:02:00,56.5,46.0,29.75,South,180,13.3,16.1,68,0.00,CLR,CLR,0.00,WeatherDisplay:10.37,2013-04-28 13:02:00,
2013-04-28 08:07:00,56.5,45.7,29.75,South,180,8.0,11.5,67,0.00,CLR,CLR,0.00,WeatherDisplay:10.37,2013-04-28 13:07:00,
2013-04-28 08:13:00,56.5,45.7,29.75,SE,135,11.7,15.0,67,0.00,CLR,CLR,0.00,WeatherDisplay:10.37,2013-04-28 13:13:00,
2013-04-28 08:18:00,56.8,46.0,29.75,South,180,9.2,12.7,67,0.00,CLR,CLR,0.00,WeatherDisplay:10.37,2013-04-28 13:18:00,
2013-04-28 08:23:00,57.0,46.2,29.75,SSE,158,8.3,10.4,67,0.00,CLR,CLR,0.00,WeatherDisplay:10.37,2013-04-28 13:23:00,
2013-04-28 08:28:00,57.9,47.0,29.75,ESE,112,8.6,11.5,67,0.00,CLR,CLR,0.00,WeatherDisplay:10.37,2013-04-28 13:28:00,
2013-04-28 08:34:00,58.3,46.6,29.74,South,180,8.7,13.8,65,0.00,CLR,CLR,0.00,WeatherDisplay:10.37,2013-04-28 13:34:00,
2013-04-28 08:39:00,58.8,46.7,29.74,SSE,158,8.8,11.5,64,0.00,CLR,CLR,0.00,WeatherDisplay:10.37,2013-04-28 13:39:00,
2013-04-28 08:44:00,59.5,47.3,29.74,South,180,16.0,21.2,64,0.00,CLR,CLR,0.00,WeatherDisplay:10.37,2013-04-28 13:44:00,
2013-04-28 08:49:00,59.9,47.3,29.73,SSE,158,11.5,18.4,63,0.00,CLR,CLR,0.00,WeatherDisplay:10.37,2013-04-28 13:49:00,
2013-04-28 08:54:00,60.1,47.0,29.73,SSE,158,16.8,21.9,62,0.00,CLR,CLR,0.00,WeatherDisplay:10.37,2013-04-28 13:54:00,
2013-04-28 08:59:00,60.6,47.5,29.74,South,180,7.9,17.3,62,0.00,CLR,CLR,0.00,WeatherDisplay:10.37,2013-04-28 13:59:00,
2013-04-28 09:05:00,61.2,47.6,29.73,SSE,158,17.2,18.4,61,0.00,CLR,CLR,0.00,WeatherDisplay:10.37,2013-04-28 14:05:00,
2013-04-28 09:10:00,61.5,47.5,29.73,SSE,158,16.0,17.3,60,0.00,CLR,CLR,0.00,WeatherDisplay:10.37,2013-04-28 14:10:00,
2013-04-28 09:15:00,61.9,47.8,29.73,South,180,7.3,19.4,60,0.00,CLR,CLR,0.00,WeatherDisplay:10.37,2013-04-28 14:15:00,
2013-04-28 09:20:00,62.4,48.3,29.73,South,180,8.4,19.6,60,0.00,CLR,CLR,0.00,WeatherDisplay:10.37,2013-04-28 14:20:00,
2013-04-28 09:25:00,63.0,48.4,29.73,South,180,7.1,9.4,59,0.00,CLR,CLR,0.00,WeatherDisplay:10.37,2013-04-28 14:25:00,
2013-04-28 09:31:00,63.7,48.6,29.72,WSW,248,12.6,19.6,58,0.00,CLR,CLR,0.00,WeatherDisplay:10.37,2013-04-28 14:31:00,
2013-04-28 09:36:00,64.2,48.7,29.72,South,180,10.1,19.6,57,0.00,CLR,CLR,0.00,WeatherDisplay:10.37,2013-04-28 14:36:00,
2013-04-28 09:41:00,64.4,48.8,29.72,South,180,8.7,9.2,57,0.00,CLR,CLR,0.00,WeatherDisplay:10.37,2013-04-28 14:41:00,
2013-04-28 09:46:00,64.9,49.3,29.72,SSW,202,8.3,12.3,57,0.00,CLR,CLR,0.00,WeatherDisplay:10.37,2013-04-28 14:46:00,
2013-04-28 09:51:00,66.2,50.0,29.72,SSW,202,5.6,10.4,56,0.00,CLR,CLR,0.00,WeatherDisplay:10.37,2013-04-28 14:51:00,
2013-04-28 09:57:00,67.8,50.6,29.72,SSW,202,5.0,9.2,54,0.00,CLR,CLR,0.00,WeatherDisplay:10.37,2013-04-28 14:57:00,
2013-04-28 10:02:00,68.7,50.4,29.72,WSW,248,8.7,11.5,52,0.00,CLR,CLR,0.00,WeatherDisplay:10.37,2013-04-28 15:02:00,
2013-04-28 10:07:00,68.7,49.3,29.73,SW,225,11.2,21.9,50,0.00,CLR,CLR,0.00,WeatherDisplay:10.37,2013-04-28 15:07:00,
2013-04-28 10:12:00,68.5,49.2,29.73,South,180,11.0,12.7,50,0.00,CLR,CLR,0.00,WeatherDisplay:10.37,2013-04-28 15:12:00,
2013-04-28 10:18:00,68.2,49.4,29.72,South,180,8.8,11.5,51,0.00,CLR,CLR,0.00,WeatherDisplay:10.37,2013-04-28 15:18:00,
2013-04-28 10:23:00,68.2,48.8,29.72,SSE,158,13.5,18.4,50,0.00,CLR,CLR,0.00,WeatherDisplay:10.37,2013-04-28 15:23:00,
2013-04-28 10:28:00,67.6,48.9,29.71,SSE,158,9.0,15.0,51,0.00,CLR,CLR,0.00,WeatherDisplay:10.37,2013-04-28 15:28:00,
2013-04-28 10:33:00,67.6,48.9,29.72,South,180,10.4,16.5,51,0.00,CLR,CLR,0.00,WeatherDisplay:10.37,2013-04-28 15:33:00,
2013-04-28 10:38:00,67.6,49.4,29.71,SSW,202,8.6,13.8,52,0.00,CLR,CLR,0.00,WeatherDisplay:10.37,2013-04-28 15:38:00,
2013-04-28 10:43:00,67.8,49.5,29.71,East,90,9.0,11.5,52,0.00,CLR,CLR,0.00,WeatherDisplay:10.37,2013-04-28 15:43:00,
2013-04-28 10:49:00,68.2,49.4,29.71,SSW,202,12.3,20.7,51,0.00,CLR,CLR,0.00,WeatherDisplay:10.37,2013-04-28 15:49:00,
2013-04-28 10:54:00,68.4,49.5,29.71,ESE,112,8.9,12.7,51,0.00,CLR,CLR,0.00,WeatherDisplay:10.37,2013-04-28 15:54:00,
2013-04-28 10:59:00,68.7,49.9,29.71,South,180,12.0,17.3,51,0.00,CLR,CLR,0.00,WeatherDisplay:10.37,2013-04-28 15:59:00,
2013-04-28 11:05:00,69.3,50.9,29.71,South,180,8.4,8.4,52,0.00,CLR,CLR,0.00,WeatherDisplay:10.37,2013-04-28 16:05:00,
2013-04-28 11:10:00,70.0,50.5,29.70,South,180,9.5,12.7,50,0.00,CLR,CLR,0.00,WeatherDisplay:10.37,2013-04-28 16:10:00,
2013-04-28 11:15:00,70.3,50.8,29.70,SSE,158,11.9,16.1,50,0.00,CLR,CLR,0.00,WeatherDisplay:10.37,2013-04-28 16:15:00,
2013-04-28 11:20:00,71.2,51.1,29.71,SSE,158,10.5,15.0,49,0.00,CLR,CLR,0.00,WeatherDisplay:10.37,2013-04-28 16:20:00,
2013-04-28 11:25:00,71.4,51.3,29.71,SSE,158,6.3,10.4,49,0.00,CLR,CLR,0.00,WeatherDisplay:10.37,2013-04-28 16:25:00,
2013-04-28 11:31:00,72.1,51.4,29.71,SE,135,8.1,16.1,48,0.00,CLR,CLR,0.00,WeatherDisplay:10.37,2013-04-28 16:31:00,
2013-04-28 11:36:00,72.3,51.5,29.71,SE,135,8.3,10.4,48,0.00,CLR,CLR,0.00,WeatherDisplay:10.37,2013-04-28 16:36:00,
2013-04-28 11:41:00,72.3,51.0,29.71,South,180,6.7,8.1,47,0.00,CLR,CLR,0.00,WeatherDisplay:10.37,2013-04-28 16:41:00,
2013-04-28 11:46:00,72.3,51.0,29.72,ESE,112,10.4,13.8,47,0.00,CLR,CLR,0.00,WeatherDisplay:10.37,2013-04-28 16:46:00,
2013-04-28 11:52:00,72.1,50.8,29.71,SE,135,10.0,16.1,47,0.00,CLR,CLR,0.00,WeatherDisplay:10.37,2013-04-28 16:52:00,
2013-04-28 11:57:00,72.0,50.6,29.71,SW,225,8.7,11.5,47,0.00,CLR,CLR,0.00,WeatherDisplay:10.37,2013-04-28 16:57:00,
2013-04-28 12:02:00,71.4,50.1,29.70,SSW,202,8.8,11.5,47,0.00,CLR,CLR,0.00,WeatherDisplay:10.37,2013-04-28 17:02:00,
2013-04-28 12:07:00,71.4,50.7,29.71,SSW,202,5.6,9.2,48,0.00,CLR,CLR,0.00,WeatherDisplay:10.37,2013-04-28 17:07:00,
2013-04-28 12:12:00,71.4,50.7,29.71,South,180,6.9,9.2,48,0.00,CLR,CLR,0.00,WeatherDisplay:10.37,2013-04-28 17:12:00,
2013-04-28 12:17:00,72.0,50.6,29.71,South,180,8.8,11.5,47,0.00,CLR,CLR,0.00,WeatherDisplay:10.37,2013-04-28 17:17:00,
2013-04-28 12:23:00,72.1,50.8,29.71,East,90,6.5,8.1,47,0.00,CLR,CLR,0.00,WeatherDisplay:10.37,2013-04-28 17:23:00,
2013-04-28 12:28:00,72.3,51.0,29.71,South,180,8.9,12.7,47,0.00,CLR,CLR,0.00,WeatherDisplay:10.37,2013-04-28 17:28:00,
2013-04-28 12:33:00,72.5,51.1,29.71,SSE,158,10.9,16.1,47,0.00,CLR,CLR,0.00,WeatherDisplay:10.37,2013-04-28 17:33:00,
2013-04-28 12:38:00,72.9,51.4,29.70,SE,135,8.3,11.5,47,0.00,CLR,CLR,0.00,WeatherDisplay:10.37,2013-04-28 17:38:00,
2013-04-28 12:43:00,72.7,50.7,29.70,South,180,7.1,11.8,46,0.00,CLR,CLR,0.00,WeatherDisplay:10.37,2013-04-28 17:43:00,
2013-04-28 12:48:00,72.3,51.0,29.69,SSW,202,12.8,17.3,47,0.00,CLR,CLR,0.00,WeatherDisplay:10.37,2013-04-28 17:48:00,
2013-04-28 12:54:00,72.3,51.0,29.69,South,180,9.4,12.7,47,0.00,CLR,CLR,0.00,WeatherDisplay:10.37,2013-04-28 17:54:00,
2013-04-28 12:59:00,72.3,51.0,29.69,South,180,7.3,11.5,47,0.00,CLR,CLR,0.00,WeatherDisplay:10.37,2013-04-28 17:59:00,
2013-04-28 13:04:00,72.7,51.3,29.68,South,180,7.1,8.1,47,0.00,CLR,CLR,0.00,WeatherDisplay:10.37,2013-04-28 18:04:00,
2013-04-28 13:09:00,73.2,51.8,29.68,SSE,158,9.1,19.6,47,0.00,CLR,CLR,0.00,WeatherDisplay:10.37,2013-04-28 18:09:00,
2013-04-28 13:14:00,73.6,52.1,29.68,SSE,158,7.4,10.4,47,0.00,CLR,CLR,0.00,WeatherDisplay:10.37,2013-04-28 18:14:00,
2013-04-28 13:20:00,74.1,52.0,29.68,SSW,202,7.5,9.2,46,0.00,CLR,CLR,0.00,WeatherDisplay:10.37,2013-04-28 18:20:00,
2013-04-28 13:25:00,74.8,52.7,29.69,SSW,202,9.2,12.7,46,0.00,CLR,CLR,0.00,WeatherDisplay:10.37,2013-04-28 18:25:00,
2013-04-28 13:30:00,75.4,52.6,29.69,South,180,8.8,11.5,45,0.00,CLR,CLR,0.00,WeatherDisplay:10.37,2013-04-28 18:30:00,
2013-04-28 13:35:00,76.1,52.6,29.69,SSW,202,5.2,12.3,44,0.00,CLR,CLR,0.00,WeatherDisplay:10.37,2013-04-28 18:35:00,
2013-04-28 13:41:00,76.6,52.5,29.68,SSE,158,6.2,8.3,43,0.00,CLR,CLR,0.00,WeatherDisplay:10.37,2013-04-28 18:41:00,
2013-04-28 13:46:00,77.5,53.3,29.68,SSE,158,12.3,16.1,43,0.00,CLR,CLR,0.00,WeatherDisplay:10.37,2013-04-28 18:46:00,
2013-04-28 13:51:00,77.9,53.0,29.68,SSE,158,6.8,11.5,42,0.00,CLR,CLR,0.00,WeatherDisplay:10.37,2013-04-28 18:51:00,
2013-04-28 13:56:00,78.6,52.9,29.68,South,180,11.8,18.4,41,0.00,CLR,CLR,0.00,WeatherDisplay:10.37,2013-04-28 18:56:00,
2013-04-28 14:01:00,79.0,52.6,29.67,South,180,5.2,12.7,40,0.00,CLR,CLR,0.00,WeatherDisplay:10.37,2013-04-28 19:01:00,
2013-04-28 14:06:00,79.5,52.4,29.68,SSE,158,9.9,12.7,39,0.00,CLR,CLR,0.00,WeatherDisplay:10.37,2013-04-28 19:06:00,
2013-04-28 14:12:00,80.1,52.9,29.66,SSE,158,10.4,13.8,39,0.00,CLR,CLR,0.00,WeatherDisplay:10.37,2013-04-28 19:12:00,
2013-04-28 14:17:00,80.1,52.2,29.66,SSW,202,5.9,10.4,38,0.00,CLR,CLR,0.00,WeatherDisplay:10.37,2013-04-28 19:17:00,
2013-04-28 14:22:00,79.9,52.0,29.66,SSW,202,7.8,9.2,38,0.00,CLR,CLR,0.00,WeatherDisplay:10.37,2013-04-28 19:22:00,
2013-04-28 14:27:00,79.5,51.7,29.68,SW,225,5.1,8.1,38,0.00,CLR,CLR,0.00,WeatherDisplay:10.37,2013-04-28 19:27:00,
2013-04-28 14:32:00,79.2,51.4,29.67,South,180,5.3,8.1,38,0.00,CLR,CLR,0.00,WeatherDisplay:10.37,2013-04-28 19:32:00,
2013-04-28 14:37:00,78.6,50.9,29.68,WSW,248,7.6,10.4,38,0.00,CLR,CLR,0.00,WeatherDisplay:10.37,2013-04-28 19:37:00,
2013-04-28 14:43:00,78.1,50.4,29.68,SW,225,7.1,13.8,38,0.00,CLR,CLR,0.00,WeatherDisplay:10.37,2013-04-28 19:43:00,
2013-04-28 14:48:00,77.5,49.9,29.68,South,180,6.8,9.2,38,0.00,CLR,CLR,0.00,WeatherDisplay:10.37,2013-04-28 19:48:00,
2013-04-28 14:53:00,77.2,49.6,29.68,South,180,4.4,8.1,38,0.00,CLR,CLR,0.00,WeatherDisplay:10.37,2013-04-28 19:53:00,
2013-04-28 14:58:00,77.2,49.6,29.68,SSW,202,4.8,5.8,38,0.00,CLR,CLR,0.00,WeatherDisplay:10.37,2013-04-28 19:58:00,
2013-04-28 15:04:00,77.2,50.3,29.68,SW,225,3.9,5.8,39,0.00,CLR,CLR,0.00,WeatherDisplay:10.37,2013-04-28 20:04:00,
2013-04-28 15:09:00,77.2,50.3,29.68,West,270,4.0,4.6,39,0.00,CLR,CLR,0.00,WeatherDisplay:10.37,2013-04-28 20:09:00,
2013-04-28 15:14:00,77.2,50.3,29.68,WSW,248,3.4,5.8,39,0.00,CLR,CLR,0.00,WeatherDisplay:10.37,2013-04-28 20:14:00,
2013-04-28 15:19:00,77.5,50.6,29.68,West,270,1.5,4.6,39,0.00,CLR,CLR,0.00,WeatherDisplay:10.37,2013-04-28 20:19:00,
2013-04-28 15:24:00,77.4,50.5,29.67,West,270,3.9,4.6,39,0.00,CLR,CLR,0.00,WeatherDisplay:10.37,2013-04-28 20:24:00,
2013-04-28 15:29:00,76.6,49.8,29.68,WNW,292,3.1,4.6,39,0.00,CLR,CLR,0.00,WeatherDisplay:10.37,2013-04-28 20:29:00,
2013-04-28 15:34:00,76.1,49.3,29.67,West,270,3.8,4.6,39,0.00,CLR,CLR,0.00,WeatherDisplay:10.37,2013-04-28 20:34:00,
2013-04-28 15:40:00,75.7,49.7,29.67,West,270,4.0,5.1,40,0.00,CLR,CLR,0.00,WeatherDisplay:10.37,2013-04-28 20:40:00,
2013-04-28 15:45:00,75.2,49.2,29.68,WNW,292,6.1,6.9,40,0.00,CLR,CLR,0.00,WeatherDisplay:10.37,2013-04-28 20:45:00,
2013-04-28 15:50:00,74.8,49.6,29.68,NW,315,7.4,8.1,41,0.00,CLR,CLR,0.00,WeatherDisplay:10.37,2013-04-28 20:50:00,
2013-04-28 15:55:00,75.0,49.7,29.68,WNW,292,8.1,10.4,41,0.00,CLR,CLR,0.00,WeatherDisplay:10.37,2013-04-28 20:55:00,
2013-04-28 16:00:00,75.4,50.0,29.68,NNW,338,7.2,10.4,41,0.00,CLR,CLR,0.00,WeatherDisplay:10.37,2013-04-28 21:00:00,
2013-04-28 16:05:00,75.7,49.7,29.68,NW,315,5.7,6.9,40,0.00,CLR,CLR,0.00,WeatherDisplay:10.37,2013-04-28 21:05:00,
2013-04-28 16:10:00,76.1,50.0,29.67,West,270,3.3,5.8,40,0.00,CLR,CLR,0.00,WeatherDisplay:10.37,2013-04-28 21:10:00,
2013-04-28 16:16:00,76.3,50.2,29.67,West,270,4.9,9.2,40,0.00,CLR,CLR,0.00,WeatherDisplay:10.37,2013-04-28 21:16:00,
2013-04-28 16:21:00,76.5,50.3,29.67,NW,315,6.9,6.9,40,0.00,CLR,CLR,0.00,WeatherDisplay:10.37,2013-04-28 21:21:00,
2013-04-28 16:26:00,76.8,51.3,29.68,NW,315,3.7,6.9,41,0.00,CLR,CLR,0.00,WeatherDisplay:10.37,2013-04-28 21:26:00,
2013-04-28 16:31:00,77.4,50.5,29.68,WNW,292,6.7,10.4,39,0.00,CLR,CLR,0.00,WeatherDisplay:10.37,2013-04-28 21:31:00,
2013-04-28 16:36:00,77.2,51.0,29.68,NW,315,8.5,11.5,40,0.00,CLR,CLR,0.00,WeatherDisplay:10.37,2013-04-28 21:36:00,
2013-04-28 16:41:00,77.5,50.6,29.68,West,270,8.1,12.7,39,0.00,CLR,CLR,0.00,WeatherDisplay:10.37,2013-04-28 21:41:00,
2013-04-28 16:47:00,77.5,50.6,29.68,NW,315,8.5,12.7,39,0.00,CLR,CLR,0.00,WeatherDisplay:10.37,2013-04-28 21:47:00,
2013-04-28 16:52:00,77.9,50.2,29.68,West,270,7.9,12.3,38,0.00,CLR,CLR,0.00,WeatherDisplay:10.37,2013-04-28 21:52:00,
2013-04-28 16:57:00,77.5,48.5,29.67,West,270,10.0,13.8,36,0.00,CLR,CLR,0.00,WeatherDisplay:10.37,2013-04-28 21:57:00,
2013-04-28 17:02:00,76.8,45.5,29.68,NW,315,5.7,8.1,33,0.00,CLR,CLR,0.00,WeatherDisplay:10.37,2013-04-28 22:02:00,
2013-04-28 17:07:00,76.6,46.9,29.68,NNW,338,7.8,10.4,35,0.00,CLR,CLR,0.00,WeatherDisplay:10.37,2013-04-28 22:07:00,
2013-04-28 17:12:00,76.5,45.2,29.68,NW,315,11.0,21.9,33,0.00,CLR,CLR,0.00,WeatherDisplay:10.37,2013-04-28 22:12:00,
2013-04-28 17:18:00,76.1,44.9,29.68,North,0,14.2,18.4,33,0.00,CLR,CLR,0.00,WeatherDisplay:10.37,2013-04-28 22:18:00,
2013-04-28 17:23:00,75.9,45.5,29.68,NW,315,10.3,17.3,34,0.00,CLR,CLR,0.00,WeatherDisplay:10.37,2013-04-28 22:23:00,
2013-04-28 17:28:00,75.6,45.2,29.68,NNW,338,11.7,19.4,34,0.00,CLR,CLR,0.00,WeatherDisplay:10.37,2013-04-28 22:28:00,
2013-04-28 17:33:00,74.8,46.1,29.69,WNW,292,13.1,17.3,36,0.00,CLR,CLR,0.00,WeatherDisplay:10.37,2013-04-28 22:33:00,
2013-04-28 17:39:00,73.8,45.9,29.69,NW,315,18.2,22.1,37,0.00,CLR,CLR,0.00,WeatherDisplay:10.37,2013-04-28 22:39:00,
2013-04-28 17:44:00,73.0,45.9,29.69,WNW,292,13.9,16.8,38,0.00,CLR,CLR,0.00,WeatherDisplay:10.37,2013-04-28 22:44:00,
2013-04-28 17:49:00,72.3,46.0,29.70,WNW,292,19.3,21.9,39,0.00,CLR,CLR,0.00,WeatherDisplay:10.37,2013-04-28 22:49:00,
2013-04-28 17:54:00,72.0,46.3,29.69,NNW,338,15.1,18.4,40,0.00,CLR,CLR,0.00,WeatherDisplay:10.37,2013-04-28 22:54:00,
2013-04-28 17:59:00,71.8,46.2,29.70,NW,315,18.3,23.0,40,0.00,CLR,CLR,0.00,WeatherDisplay:10.37,2013-04-28 22:59:00,
2013-04-28 18:05:00,71.2,46.3,29.70,NW,315,18.1,23.0,41,0.00,CLR,CLR,0.00,WeatherDisplay:10.37,2013-04-28 23:05:00,
2013-04-28 18:10:00,70.7,46.5,29.71,WNW,292,15.0,18.4,42,0.00,CLR,CLR,0.00,WeatherDisplay:10.37,2013-04-28 23:10:00,
2013-04-28 18:15:00,70.5,46.3,29.72,NW,315,14.4,18.4,42,0.00,CLR,CLR,0.00,WeatherDisplay:10.37,2013-04-28 23:15:00,
2013-04-28 18:20:00,70.3,46.2,29.71,WNW,292,10.1,13.8,42,0.00,CLR,CLR,0.00,WeatherDisplay:10.37,2013-04-28 23:20:00,
2013-04-28 18:26:00,70.2,46.0,29.70,NW,315,11.0,12.7,42,0.00,CLR,CLR,0.00,WeatherDisplay:10.37,2013-04-28 23:26:00,
2013-04-28 18:31:00,70.2,46.6,29.70,NW,315,8.9,11.5,43,0.00,CLR,CLR,0.00,WeatherDisplay:10.37,2013-04-28 23:31:00,
2013-04-28 18:36:00,70.0,46.4,29.70,NNW,338,4.6,7.6,43,0.00,CLR,CLR,0.00,WeatherDisplay:10.37,2013-04-28 23:36:00,
2013-04-28 18:41:00,70.5,46.9,29.70,North,0,5.6,6.9,43,0.00,CLR,CLR,0.00,WeatherDisplay:10.37,2013-04-28 23:41:00,
2013-04-28 18:46:00,71.4,47.1,29.70,NW,315,8.5,9.2,42,0.00,CLR,CLR,0.00,WeatherDisplay:10.37,2013-04-28 23:46:00,
2013-04-28 18:51:00,71.4,46.5,29.70,NNW,338,7.4,10.4,41,0.00,CLR,CLR,0.00,WeatherDisplay:10.37,2013-04-28 23:51:00,
2013-04-28 18:57:00,71.4,46.5,29.70,West,270,5.5,6.9,41,0.00,CLR,CLR,0.00,WeatherDisplay:10.37,2013-04-28 23:57:00,
2013-04-28 19:02:00,71.4,46.5,29.70,WNW,292,11.3,11.5,41,0.00,CLR,CLR,0.00,WeatherDisplay:10.37,2013-04-29 00:02:00,
2013-04-28 19:07:00,71.4,46.5,29.70,NNW,338,7.8,14.7,41,0.00,CLR,CLR,0.00,WeatherDisplay:10.37,2013-04-29 00:07:00,
2013-04-28 19:12:00,70.7,45.8,29.70,NNW,338,8.0,10.4,41,0.00,CLR,CLR,0.00,WeatherDisplay:10.37,2013-04-29 00:12:00,
2013-04-28 19:17:00,69.8,45.0,29.70,NNW,338,8.5,11.2,41,0.00,CLR,CLR,0.00,WeatherDisplay:10.37,2013-04-29 00:17:00,
2013-04-28 19:22:00,68.7,44.7,29.70,NW,315,6.7,10.4,42,0.00,CLR,CLR,0.00,WeatherDisplay:10.37,2013-04-29 00:22:00,
2013-04-28 19:27:00,68.2,44.8,29.71,NW,315,8.9,12.7,43,0.00,CLR,CLR,0.00,WeatherDisplay:10.37,2013-04-29 00:27:00,
2013-04-28 19:33:00,67.1,43.8,29.71,WNW,292,10.1,11.5,43,0.00,CLR,CLR,0.00,WeatherDisplay:10.37,2013-04-29 00:33:00,
2013-04-28 19:38:00,66.4,43.8,29.71,NW,315,8.1,12.7,44,0.00,CLR,CLR,0.00,WeatherDisplay:10.37,2013-04-29 00:38:00,
2013-04-28 19:43:00,66.0,43.5,29.71,NW,315,3.7,8.1,44,0.00,CLR,CLR,0.00,WeatherDisplay:10.37,2013-04-29 00:43:00,
2013-04-28 19:48:00,65.8,43.3,29.70,NW,315,3.6,4.6,44,0.00,CLR,CLR,0.00,WeatherDisplay:10.37,2013-04-29 00:48:00,
2013-04-28 19:53:00,65.3,43.4,29.70,NNW,338,4.3,6.9,45,0.00,CLR,CLR,0.00,WeatherDisplay:10.37,2013-04-29 00:53:00,
2013-04-28 19:59:00,64.9,43.1,29.71,NW,315,3.2,5.8,45,0.00,CLR,CLR,0.00,WeatherDisplay:10.37,2013-04-29 00:59:00,
2013-04-28 20:04:00,64.6,43.3,29.71,NW,315,1.5,2.5,46,0.00,CLR,CLR,0.00,WeatherDisplay:10.37,2013-04-29 01:04:00,
2013-04-28 20:09:00,64.4,43.2,29.71,WNW,292,0.7,2.3,46,0.00,CLR,CLR,0.00,WeatherDisplay:10.37,2013-04-29 01:09:00,
2013-04-28 20:14:00,64.2,43.0,29.70,WNW,292,2.1,3.5,46,0.00,CLR,CLR,0.00,WeatherDisplay:10.37,2013-04-29 01:14:00,
2013-04-28 20:19:00,64.0,42.8,29.70,NW,315,2.7,3.5,46,0.00,CLR,CLR,0.00,WeatherDisplay:10.37,2013-04-29 01:19:00,
2013-04-28 20:24:00,63.7,43.1,29.70,NW,315,4.3,5.8,47,0.00,CLR,CLR,0.00,WeatherDisplay:10.37,2013-04-29 01:24:00,
2013-04-28 20:29:00,63.3,42.7,29.71,WNW,292,3.2,3.5,47,0.00,CLR,CLR,0.00,WeatherDisplay:10.37,2013-04-29 01:29:00,
2013-04-28 20:35:00,63.0,43.0,29.70,WNW,292,3.3,4.6,48,0.00,CLR,CLR,0.00,WeatherDisplay:10.37,2013-04-29 01:35:00,
2013-04-28 20:40:00,62.8,42.8,29.70,WNW,292,3.2,3.5,48,0.00,CLR,CLR,0.00,WeatherDisplay:10.37,2013-04-29 01:40:00,
2013-04-28 20:45:00,62.6,42.6,29.71,WNW,292,3.0,3.5,48,0.00,CLR,CLR,0.00,WeatherDisplay:10.37,2013-04-29 01:45:00,
2013-04-28 20:50:00,62.4,42.5,29.71,WNW,292,2.7,3.5,48,0.00,CLR,CLR,0.00,WeatherDisplay:10.37,2013-04-29 01:50:00,
2013-04-28 20:56:00,61.9,42.5,29.72,WNW,292,2.5,5.8,49,0.00,CLR,CLR,0.00,WeatherDisplay:10.37,2013-04-29 01:56:00,
2013-04-28 21:01:00,61.7,42.9,29.72,WNW,292,3.6,5.8,50,0.00,CLR,CLR,0.00,WeatherDisplay:10.37,2013-04-29 02:01:00,
2013-04-28 21:06:00,61.5,43.2,29.72,NW,315,3.0,6.9,51,0.00,CLR,CLR,0.00,WeatherDisplay:10.37,2013-04-29 02:06:00,
2013-04-28 21:11:00,61.5,43.2,29.72,WNW,292,5.2,5.8,51,0.00,CLR,CLR,0.00,WeatherDisplay:10.37,2013-04-29 02:11:00,
2013-04-28 21:17:00,61.3,43.6,29.73,WNW,292,7.0,9.2,52,0.00,CLR,CLR,0.00,WeatherDisplay:10.37,2013-04-29 02:17:00,
2013-04-28 21:22:00,61.3,43.6,29.73,NW,315,10.3,12.7,52,0.00,CLR,CLR,0.00,WeatherDisplay:10.37,2013-04-29 02:22:00,
2013-04-28 21:27:00,61.0,43.7,29.74,NW,315,9.5,13.8,53,0.00,CLR,CLR,0.00,WeatherDisplay:10.37,2013-04-29 02:27:00,
2013-04-28 21:32:00,60.6,43.9,29.75,WNW,292,8.6,10.4,54,0.00,CLR,CLR,0.00,WeatherDisplay:10.37,2013-04-29 02:32:00,
2013-04-28 21:37:00,60.1,43.9,29.75,NW,315,7.7,9.2,55,0.00,CLR,CLR,0.00,WeatherDisplay:10.37,2013-04-29 02:37:00,
2013-04-28 21:43:00,59.7,44.0,29.75,WNW,292,7.4,11.5,56,0.00,CLR,CLR,0.00,WeatherDisplay:10.37,2013-04-29 02:43:00,
2013-04-28 21:48:00,59.5,43.8,29.75,WNW,292,6.7,8.3,56,0.00,CLR,CLR,0.00,WeatherDisplay:10.37,2013-04-29 02:48:00,
2013-04-28 21:53:00,59.2,43.9,29.75,WNW,292,7.2,9.2,57,0.00,CLR,CLR,0.00,WeatherDisplay:10.37,2013-04-29 02:53:00,
2013-04-28 21:58:00,59.0,44.2,29.75,West,270,5.3,8.1,58,0.00,CLR,CLR,0.00,WeatherDisplay:10.37,2013-04-29 02:58:00,
2013-04-28 22:04:00,58.8,44.1,29.76,WNW,292,7.4,10.4,58,0.00,CLR,CLR,0.00,WeatherDisplay:10.37,2013-04-29 03:04:00,
2013-04-28 22:09:00,58.8,44.5,29.77,WNW,292,5.3,11.5,59,0.00,CLR,CLR,0.00,WeatherDisplay:10.37,2013-04-29 03:09:00,
2013-04-28 22:14:00,58.6,44.3,29.76,West,270,8.1,10.4,59,0.00,CLR,CLR,0.00,WeatherDisplay:10.37,2013-04-29 03:14:00,
2013-04-28 22:19:00,58.6,45.2,29.77,WNW,292,8.0,9.2,61,0.00,CLR,CLR,0.00,WeatherDisplay:10.37,2013-04-29 03:19:00,
2013-04-28 22:25:00,58.3,44.9,29.77,West,270,6.7,9.2,61,0.00,CLR,CLR,0.00,WeatherDisplay:10.37,2013-04-29 03:25:00,
2013-04-28 22:30:00,58.1,44.7,29.77,NW,315,8.3,10.4,61,0.00,CLR,CLR,0.00,WeatherDisplay:10.37,2013-04-29 03:30:00,
2013-04-28 22:35:00,57.9,45.0,29.77,WNW,292,6.6,9.8,62,0.00,CLR,CLR,0.00,WeatherDisplay:10.37,2013-04-29 03:35:00,
2013-04-28 22:40:00,57.7,44.8,29.78,NW,315,6.9,9.2,62,0.00,CLR,CLR,0.00,WeatherDisplay:10.37,2013-04-29 03:40:00,
2013-04-28 22:45:00,57.6,44.6,29.77,NW,315,2.1,3.5,62,0.00,CLR,CLR,0.00,WeatherDisplay:10.37,2013-04-29 03:45:00,
2013-04-28 22:50:00,57.4,44.5,29.77,WNW,292,3.2,4.6,62,0.00,CLR,CLR,0.00,WeatherDisplay:10.37,2013-04-29 03:50:00,
2013-04-28 22:56:00,56.8,44.4,29.77,WNW,292,6.1,6.9,63,0.00,CLR,CLR,0.00,WeatherDisplay:10.37,2013-04-29 03:56:00,
2013-04-28 23:01:00,56.7,44.6,29.77,WNW,292,4.9,6.9,64,0.00,CLR,CLR,0.00,WeatherDisplay:10.37,2013-04-29 04:01:00,
2013-04-28 23:02:00,56.5,44.4,29.77,NW,315,5.1,6.9,64,0.00,CLR,CLR,0.00,WeatherDisplay:10.37,2013-04-29 04:02:00,
2013-04-28 23:07:00,56.3,44.7,29.77,WNW,292,4.2,5.8,65,0.00,CLR,CLR,0.00,WeatherDisplay:10.37,2013-04-29 04:07:00,
2013-04-28 23:12:00,56.1,44.9,29.78,WNW,292,7.0,8.1,66,0.00,CLR,CLR,0.00,WeatherDisplay:10.37,2013-04-29 04:12:00,
2013-04-28 23:17:00,56.1,44.9,29.78,West,270,5.7,8.1,66,0.00,CLR,CLR,0.00,WeatherDisplay:10.37,2013-04-29 04:17:00,
2013-04-28 23:23:00,55.9,45.1,29.78,WNW,292,3.5,5.8,67,0.00,CLR,CLR,0.00,WeatherDisplay:10.37,2013-04-29 04:23:00,
2013-04-28 23:28:00,55.8,45.0,29.79,WNW,292,5.7,9.2,67,0.00,CLR,CLR,0.00,WeatherDisplay:10.37,2013-04-29 04:28:00,
2013-04-28 23:33:00,55.4,45.0,29.78,WNW,292,4.1,9.2,68,0.00,CLR,CLR,0.00,WeatherDisplay:10.37,2013-04-29 04:33:00,
2013-04-28 23:38:00,55.2,44.8,29.78,WNW,292,1.1,3.5,68,0.00,CLR,CLR,0.00,WeatherDisplay:10.37,2013-04-29 04:38:00,
2013-04-28 23:44:00,54.9,44.9,29.78,WNW,292,4.0,5.8,69,0.00,CLR,CLR,0.00,WeatherDisplay:10.37,2013-04-29 04:44:00,
2013-04-28 23:49:00,54.5,44.5,29.78,WNW,292,5.8,6.9,69,0.00,CLR,CLR,0.00,WeatherDisplay:10.37,2013-04-29 04:49:00,
2013-04-28 23:54:00,54.3,44.4,29.78,West,270,3.8,5.8,69,0.00,CLR,CLR,0.00,WeatherDisplay:10.37,2013-04-29 04:54:00,
2013-04-28 23:59:00,54.1,44.6,29.78,West,270,4.1,6.9,70,0.00,CLR,CLR,0.00,WeatherDisplay:10.37,2013-04-29 04:59:00,